Weather History for KO86 - January, 2014

Change the Weather History Date:

Thursday, January 16, 2014

  Actual Average (KMHS) Record (KMHS)
Temperature  
Mean Temperature 40 °F 36 °F  
Max Temperature 55 °F 45 °F 64 °F (1961)
Min Temperature 24 °F 26 °F 0 °F (1917)
Degree Days  
Heating Degree Days 26 29  
Month to date heating degree days 474  
Since 1 July heating degree days 2796  
Cooling Degree Days 0 0  
Month to date cooling degree days 0  
Year to date cooling degree days 0  
Moisture  
Dew Point 28 °F    
Average Humidity 81    
Maximum Humidity 100    
Minimum Humidity 41    
Precipitation  
Precipitation 0.00 in 0.23 in 3.45 in (1974)
Month to date precipitation 3.83  
Year to date precipitation 3.83  
Sea Level Pressure  
Sea Level Pressure 30.37 in    
Wind  
Wind Speed 0 mph (West)    
Max Wind Speed 4 mph    
Max Gust Speed -    
Visibility 9 miles    
Events      
T = Trace of Precipitation, MM = Missing Value Source: NWS Daily Summary

Daily Weather History Graph

Daily Weather History Graph

Search for Another Location

Airport or City:

Trip Planner

Search our weather history database for the weather conditions in past years. The results will help you decide how hot, cold, wet, or windy it might be!

Date:

Astronomy

Jan. 16, 2014 Rise Set
Actual Time 7:32 AM PST 5:08 PM PST
Civil Twilight 7:02 AM PST 5:38 PM PST
Nautical Twilight 6:28 AM PST 6:12 PM PST
Astronomical Twilight 5:56 AM PST 6:45 PM PST
Moon 6:06 PM PST (1/16) 7:29 AM PST (1/16)
Length of Visible Light 10h 36m
Length of Day
9h 35m
Full, 100% of the Moon is Illuminated
Jan 16
Full
Jan 23
Last Quarter
Jan 30
New
Feb 6
First Quarter
Feb 14
Full

Hourly Weather History & Observations

Time (PST) Temp. Windchill Dew Point Humidity Pressure Visibility Wind Dir Wind Speed Gust Speed Precip Events Conditions
12:05 AM 28.4 °F - 26.6 °F 93% 30.44 in 7.0 mi Calm Calm - N/A   Clear
12:25 AM 28.4 °F - 26.6 °F 93% 30.44 in 8.0 mi Calm Calm - N/A   Clear
12:45 AM 28.4 °F - 26.6 °F 93% 30.44 in 9.0 mi Calm Calm - N/A   Clear
1:05 AM 28.4 °F - 26.6 °F 93% 30.44 in 9.0 mi Calm Calm - N/A   Clear
1:25 AM 26.6 °F - 26.6 °F 100% 30.44 in 9.0 mi Calm Calm - N/A   Clear
1:45 AM 26.6 °F - 24.8 °F 93% 30.44 in 8.0 mi Calm Calm - N/A   Clear
2:05 AM 26.6 °F - 24.8 °F 93% 30.44 in 5.0 mi Calm Calm - N/A   Clear
2:25 AM 26.6 °F - 24.8 °F 93% 30.44 in 10.0 mi Calm Calm - N/A   Clear
2:45 AM 26.6 °F - 24.8 °F 93% 30.45 in 10.0 mi Calm Calm - N/A   Clear
3:05 AM 26.6 °F - 24.8 °F 93% 30.45 in 10.0 mi Calm Calm - N/A   Partly Cloudy
3:25 AM 26.6 °F - 24.8 °F 93% 30.45 in 10.0 mi Calm Calm - N/A   Partly Cloudy
3:45 AM 26.6 °F - 24.8 °F 93% 30.44 in 10.0 mi Calm Calm - N/A   Partly Cloudy
4:05 AM 26.6 °F - 24.8 °F 93% 30.44 in 10.0 mi Calm Calm - N/A   Mostly Cloudy
4:25 AM 26.6 °F - 24.8 °F 93% 30.44 in 10.0 mi Calm Calm - N/A   Mostly Cloudy
4:45 AM 26.6 °F - 24.8 °F 93% 30.43 in 10.0 mi Calm Calm - N/A   Mostly Cloudy
5:05 AM 24.8 °F - 24.8 °F 100% 30.43 in 7.0 mi Calm Calm - N/A   Scattered Clouds
5:25 AM 24.8 °F - 24.8 °F 100% 30.43 in 10.0 mi Calm Calm - N/A   Overcast
5:45 AM 26.6 °F - 24.8 °F 93% 30.43 in 4.0 mi Calm Calm - N/A   Overcast
6:05 AM 26.6 °F - 24.8 °F 93% 30.43 in 4.0 mi Calm Calm - N/A   Overcast
6:25 AM 24.8 °F - 23.0 °F 93% 30.43 in 7.0 mi Calm Calm - N/A   Mostly Cloudy
6:45 AM 24.8 °F - 23.0 °F 93% 30.43 in 10.0 mi Calm Calm - N/A   Mostly Cloudy
7:05 AM 24.8 °F - 23.0 °F 93% 30.43 in 10.0 mi Calm Calm - N/A   Mostly Cloudy
7:25 AM 24.8 °F - 24.8 °F 100% 30.43 in 4.0 mi Calm Calm - N/A   Overcast
7:45 AM 24.8 °F - 23.0 °F 93% 30.43 in 8.0 mi Calm Calm - N/A   Scattered Clouds
8:05 AM 24.8 °F - 23.0 °F 93% 30.44 in 7.0 mi Calm Calm - N/A   Clear
8:25 AM 26.6 °F - 24.8 °F 93% 30.44 in 10.0 mi Calm Calm - N/A   Clear
8:45 AM 28.4 °F - 26.6 °F 93% 30.45 in 10.0 mi Calm Calm - N/A   Clear
9:05 AM 30.2 °F - 28.4 °F 93% 30.46 in 10.0 mi Calm Calm - N/A   Clear
9:25 AM 32.0 °F - 28.4 °F 87% 30.45 in 10.0 mi Calm Calm - N/A   Clear
9:45 AM 32.0 °F - 28.4 °F 87% 30.45 in 10.0 mi Calm Calm - N/A   Clear
10:05 AM 32.0 °F - 30.2 °F 93% 30.45 in 10.0 mi Calm Calm - N/A   Clear
10:25 AM 33.8 °F - 30.2 °F 87% 30.44 in 10.0 mi Calm Calm - N/A   Clear
10:45 AM 35.6 °F - 28.4 °F 75% 30.42 in 10.0 mi Calm Calm - N/A   Clear
11:05 AM 37.4 °F - 30.2 °F 75% 30.41 in 10.0 mi Calm Calm - N/A   Clear
11:25 AM 39.2 °F - 26.6 °F 61% 30.40 in 10.0 mi Calm Calm - N/A   Clear
11:45 AM 41.0 °F - 32.0 °F 70% 30.38 in 10.0 mi Calm Calm - N/A   Clear
12:05 PM 44.6 °F - 30.2 °F 57% 30.37 in 10.0 mi Calm Calm - N/A   Clear
12:25 PM 46.4 °F - 28.4 °F 50% 30.35 in 10.0 mi Calm Calm - N/A   Clear
12:45 PM 48.2 °F - 32.0 °F 54% 30.33 in 10.0 mi Calm Calm - N/A   Clear
1:05 PM 48.2 °F - 35.6 °F 62% 30.32 in 10.0 mi SSE 3.5 mph - N/A   Clear
1:25 PM 48.2 °F - 26.6 °F 43% 30.31 in 10.0 mi Calm Calm - N/A   Clear
1:45 PM 51.8 °F - 28.4 °F 41% 30.30 in 10.0 mi Calm Calm - N/A   Clear
2:05 PM 51.8 °F - 32.0 °F 47% 30.29 in 10.0 mi Calm Calm - N/A   Clear
2:25 PM 51.8 °F - 33.8 °F 50% 30.28 in 10.0 mi Calm Calm - N/A   Clear
2:45 PM 53.6 °F - 32.0 °F 44% 30.28 in 10.0 mi Calm Calm - N/A   Clear
3:05 PM 55.4 °F - 33.8 °F 44% 30.28 in 10.0 mi Calm Calm - N/A   Clear
3:25 PM 53.6 °F - 32.0 °F 44% 30.28 in 10.0 mi Calm Calm - N/A   Clear
3:45 PM 53.6 °F - 37.4 °F 54% 30.28 in 10.0 mi Calm Calm - N/A   Clear
4:05 PM 46.4 °F - 39.2 °F 76% 30.28 in 10.0 mi Calm Calm - N/A   Clear
4:25 PM 44.6 °F - 37.4 °F 76% 30.28 in 10.0 mi Calm Calm - N/A   Clear
4:45 PM 41.0 °F - 35.6 °F 81% 30.28 in 10.0 mi Calm Calm - N/A   Clear
5:05 PM 41.0 °F - 35.6 °F 81% 30.29 in 10.0 mi Calm Calm - N/A   Clear
5:25 PM 39.2 °F - 33.8 °F 81% 30.29 in 10.0 mi Calm Calm - N/A   Clear
5:45 PM 37.4 °F - 32.0 °F 81% 30.29 in 10.0 mi Calm Calm - N/A   Clear
6:05 PM 37.4 °F - 32.0 °F 81% 30.29 in 10.0 mi Calm Calm - N/A   Clear
6:25 PM 35.6 °F 32.8 °F 32.0 °F 87% 30.30 in 10.0 mi West 3.5 mph - N/A   Clear
6:45 PM 35.6 °F - 30.2 °F 81% 30.30 in 10.0 mi Calm Calm - N/A   Clear
7:05 PM 35.6 °F - 28.4 °F 75% 30.31 in 10.0 mi Calm Calm - N/A   Clear
7:25 PM 33.8 °F - 28.4 °F 81% 30.31 in 10.0 mi Calm Calm - N/A   Clear
7:45 PM 33.8 °F 30.8 °F 28.4 °F 81% 30.31 in 10.0 mi WNW 3.5 mph - N/A   Clear
8:05 PM 32.0 °F - 28.4 °F 87% 30.31 in 10.0 mi Calm Calm - N/A   Clear
8:25 PM 32.0 °F - 28.4 °F 87% 30.31 in 10.0 mi Calm Calm - N/A   Clear
8:45 PM 32.0 °F - 26.6 °F 80% 30.31 in 10.0 mi Calm Calm - N/A   Clear
9:05 PM 32.0 °F 28.7 °F 26.6 °F 80% 30.32 in 10.0 mi NW 3.5 mph - N/A   Clear
9:25 PM 32.0 °F - 26.6 °F 80% 30.32 in 10.0 mi Calm Calm - N/A   Clear
9:45 PM 32.0 °F - 26.6 °F 80% 30.31 in 10.0 mi Calm Calm - N/A   Clear
10:05 PM 32.0 °F - 26.6 °F 80% 30.32 in 10.0 mi Calm Calm - N/A   Clear
10:25 PM 32.0 °F - 26.6 °F 80% 30.31 in 10.0 mi Calm Calm - N/A   Clear
10:45 PM 32.0 °F - 26.6 °F 80% 30.31 in 10.0 mi Calm Calm - N/A   Clear
11:05 PM 32.0 °F - 26.6 °F 80% 30.31 in 10.0 mi Calm Calm - N/A   Clear
11:25 PM 32.0 °F - 26.6 °F 80% 30.30 in 10.0 mi Calm Calm - N/A   Clear
11:45 PM 30.2 °F - 26.6 °F 86% 30.30 in 10.0 mi Calm Calm - N/A   Clear